Regional Weather Roundup
Issued by NWS

Home | Current Version | Previous Version | Graphics & Text | Print | Product List | Glossary On
Versions: 1 2 3 4 5 6 7 8 9 10 11 12 13 14 15 16 17 18 19 20 21 22 23 24 25 26 27 28
000
ASUS45 KTFX 281310
RWRMT
MONTANA REGIONAL WEATHER ROUNDUP
NATIONAL WEATHER SERVICE GREAT FALLS MT
700 AM MDT THU JUL 28 2016

NOTE: "FAIR" INDICATES FEW OR NO CLOUDS BELOW 12000 FEET WITH NO
SIGNIFICANT WEATHER AND/OR OBSTRUCTIONS TO VISIBILITY.

MTZ001>007-043-281400-
WEST OF THE DIVIDE

CITY           SKY/WX    TMP DP  RH WIND       PRES   REMARKS
KALISPELL      CLEAR     59  54  83 N12       30.16R
MISSOULA       PTCLDY    61  49  64 NW3       30.17R
BUTTE          CLEAR     47  41  80 SE5       30.29S
MULLAN PASS    CLEAR     63  43  48 SE3       30.28S
ANACONDA         N/A     54  46  76 S3        30.26
EUREKA           N/A     52  50  93 CALM      30.20R
HAMILTON         N/A     55  46  71 CALM      30.18R
LIBBY            N/A     54  48  82 CALM      30.17R
PLAINS           N/A     55  51  86 CALM      30.15
RONAN            N/A     54  51  89 N1        30.19R
$$

MTZ008-052>055-281400-
SOUTHWEST MONTANA

CITY           SKY/WX    TMP DP  RH WIND       PRES   REMARKS
BOZEMAN        CLEAR     57  53  86 S5        30.24R
DILLON         CLEAR     52  47  83 SW7       30.25R
W YELLOWSTONE  CLEAR     41  39  93 CALM      30.35R
ENNIS          CLEAR     50  45  81 NE6       30.31S
$$

MTZ009-010-012-014-046-048-049-054-281400-
EAST SLOPES AND CENTRAL MONTANA

CITY           SKY/WX    TMP DP  RH WIND       PRES   REMARKS
CUT BANK       PTCLDY    55  53  93 NE5       30.20S
GREAT FALLS    PTCLDY    57  52  83 S6        30.21R
MALMSTROM AFB  CLOUDY    55  53  93 SE8       30.20R
HELENA         CLEAR     60  51  72 SW3       30.22R
CHOTEAU          N/A     57  54  88 W6        30.23R
CONRAD           N/A     53  53 100 CALM      30.20S
$$

MTZ011-013-016-021-045-047-050-051-281400-
NORTH CENTRAL MONTANA

CITY           SKY/WX    TMP DP  RH WIND       PRES   REMARKS
HAVRE          CLOUDY    59  55  87 E3        30.17S
N BAR RANCH      N/A     54  50  87 CALM      30.27R
CHINOOK          N/A     57  57 100 CALM      30.18S
$$

MTZ017>020-022>027-061-062-281400-
NORTHEAST MONTANA

CITY           SKY/WX    TMP DP  RH WIND       PRES   REMARKS
GLASGOW        SUNNY     59  56  89 E8        30.16F
JORDAN           N/A     61  60  97 N5        30.17R
SIDNEY         CLOUDY    64  60  87 NE5       30.16S
WOLF POINT     CLOUDY    63  60  90 NE6       30.17F
PLENTYWOOD       N/A     57  57 100 CALM      30.19R
SCOBEY           N/A     51  39  63 CALM      30.17  VSB 0
$$

MTZ028>42-056>058-281400-
SOUTHCENTRAL AND SOUTHEAST MONTANA

CITY           SKY/WX    TMP DP  RH WIND       PRES   REMARKS
BAKER          PTSUNNY   60  59  96 CALM      30.14S
BILLINGS       CLOUDY    61  57  87 W6        30.19R
LIVINGSTON     CLEAR     56  53  90 W3        30.25R
MILES CITY     MOSUNNY   61  57  87 NW6       30.14S
EKALAKA          N/A     60  57  89 SE8       30.11
FORSYTH          N/A     61  61 100 W8        30.15F
LAUREL           N/A     61  54  77 W3        30.18R
ROUNDUP          N/A     60  55  83 CALM      30.10R
$$

REGIONAL REPORTS...DAKOTAS

CITY           SKY/WX    TMP DP  RH WIND       PRES   REMARKS
WILLISTON      SUNNY     63  59  87 NE6       30.17R
MINOT          CLOUDY    64  57  78 NE3       30.16S
DICKINSON      LGT RAIN  59  58  96 E12       30.14S FOG
BEACH          FOG       59  59 100 E10       30.17S VSB 1/4
CROSBY         FOG       52  52 100 CALM      30.21R VSB 1/2
WATFORD CITY     N/A    N/A N/A N/A MISG        N/A
BISMARCK       CLOUDY    63  58  83 E6        30.15S
GRAND FORKS    MOSUNNY   62  57  83 N9        30.12R
FARGO          CLOUDY    65  61  87 N5        30.08S
BUFFALO SD       N/A     62  61  96 NE5       30.08R
RAPID CITY     MOSUNNY   62  59  90 NE7       30.12R
$$

REGIONAL REPORTS...WYOMING/IDAHO/WASHINGTON

CITY           SKY/WX    TMP DP  RH WIND       PRES   REMARKS
GILLETTE       RAIN      59  59 100 S5        30.21F
SHERIDAN       CLOUDY    60  55  83 NW9       30.20S
BUFFALO WY     CLOUDY    60  55  83 NW8       30.24R
CODY           CLEAR     59  52  77 CALM      30.28F
YELLOWSTONE LA   N/A     42  42 100 CALM      30.41S
IDAHO FALLS    CLEAR     58  44  60 NE8       30.17R
SALMON         CLEAR     52  43  71 CALM      30.17R
BOISE          CLEAR     68  46  45 CALM      30.06R
SPOKANE        PTCLDY    68  51  54 NE7       30.09R
$$

REGIONAL REPORTS...ALBERTA

CITY           SKY/WX    TMP DP  RH WIND       PRES   REMARKS
EDMONTON       PTCLDY    63  57  82 SW6       30.12S
CALGARY        PTCLDY    55  50  82 CALM      30.18F
LETHBRIDGE     MOCLDY    55  55 100 SW8       30.17S
MEDICINE HAT   MOCLDY    72  59  64 SE2       30.16R
WATERTON GATE    N/A     50  46  87 SW6         N/A
CARDSTON         N/A     54  50  87 SE2         N/A
MILK RIVER       N/A     57  55  94 NW5         N/A
ONEFOUR          N/A     59  55  88 NE8         N/A
$$

REGIONAL REPORTS...SASKATCHEWAN

CITY           SKY/WX    TMP DP  RH WIND       PRES   REMARKS
SWIFT CURRENT  SUNNY     55  52  88 S7        30.18R FOG
REGINA         MOSUNNY   57  54  88 SE7       30.18F
SASKATOON      MOSUNNY   59  55  88 S3        30.16F
CYPRESS HILLS    N/A     57  52  82 S2          N/A
VAL MARIE        N/A     52  50  93 NE2         N/A
ASSINIBOIA       N/A     59  57  94 SW7         N/A
$$




USA.gov is the U.S. government's official web portal to all federal, state and local government web resources and services.